Preview of NWS' New Version of Forecast
This preview is not operational and should not be used for support decisions.

Regional Weather Roundup (RWR)

Issued by National Weather Service (NWS)

                            
000
ASCA42 TJSJ 221510
RWRPR 
PUERTO RICO/U.S. VIRGIN ISLANDS HOURLY WEATHER ROUNDUP
NATIONAL WEATHER SERVICE SAN JUAN PR
1100 AM AST FRI FEB 22 2019

PRZ001>002-007>008-010-221600-
PUERTO RICO
  
CITY           SKY/WX    TMP DP  RH WIND       PRES   REMARKS
SAN JUAN LMM   MOSUNNY   81  72  74 E20       30.17S                  
AGUADILLA      PTSUNNY   82 N/A N/A E13G23    30.18S                  
CEIBA          PTSUNNY   81  72  74 E10       30.19R                  
$$

VIZ001>002-221600-
U.S. VIRGIN ISLANDS
  
CITY           SKY/WX    TMP DP  RH WIND       PRES   REMARKS
CHARLOTTE AMA  MOSUNNY   84  70  61 E18       30.17R                  
CHRISTIANSTED  MOSUNNY   86  70  58 E22G28    30.16S HX  90           
$$

HOURLY WEATHER ROUNDUP FOR THE NEWS MEDIA
  
CITY           SKY/WX    TMP DP  RH WIND       PRES   REMARKS
ORLANDO        FAIR      79  68  69 S8        30.20S                  
NEW YORK       PTSUNNY   41  23  48 NW16      30.36R                  
NEWARK         PTSUNNY   42  21  43 NW17G23   30.36R                  
CHICAGO        FAIR      27  20  75 N6        30.41S WCI  20          
HARTFORD       CLOUDY    40  24  53 VRB5      30.28R                  
BOSTON         PTSUNNY   41  22  46 NW9G20    30.28R                  
DALLAS         CLOUDY    48  47  96 NE3       30.05R FOG              
PHILADELPHIA   PTSUNNY   44  23  43 N10G17    30.38S                  
LOS ANGELES    PTCLDY    42  31  64 E7        29.93R                  
WASHINGTON DC  CLOUDY    42  28  57 NW6       30.41R